Time,TemperatureF,DewpointF,PressureIn,WindDirection,WindDirectionDegrees,WindSpeedMPH,WindSpeedGustMPH,Humidity,HourlyPrecipIn,Conditions,Clouds,dailyrainin,SoftwareType,DateUTC
2013-09-24 00:14:00,51.0,46.0,30.09,ESE,111,3.0,7.0,82,0.00,,,0.00,,2013-09-24 04:14:00,
2013-09-24 00:24:00,51.0,46.0,30.09,ESE,113,3.0,7.0,82,0.00,,,0.00,,2013-09-24 04:24:00,
2013-09-24 00:54:00,51.0,46.0,30.09,ESE,112,2.0,5.0,82,0.00,,,0.00,,2013-09-24 04:54:00,
2013-09-24 01:13:00,50.0,45.0,30.09,ESE,109,2.0,4.0,82,0.00,,,0.00,,2013-09-24 05:13:00,
2013-09-24 01:23:00,50.0,44.0,30.09,East,101,4.0,7.0,81,0.00,,,0.00,,2013-09-24 05:23:00,
2013-09-24 01:53:00,50.0,44.0,30.09,East,89,3.0,7.0,81,0.00,,,0.00,,2013-09-24 05:53:00,
2013-09-24 02:13:00,49.0,44.0,30.09,ESE,105,4.0,5.0,83,0.00,,,0.00,,2013-09-24 06:13:00,
2013-09-24 02:22:00,49.0,44.0,30.09,ESE,110,2.0,4.0,84,0.00,,,0.00,,2013-09-24 06:22:00,
2013-09-24 02:42:00,49.0,45.0,30.09,East,95,2.0,3.0,85,0.00,,,0.00,,2013-09-24 06:42:00,
2013-09-24 02:52:00,48.0,44.0,30.09,East,98,1.0,3.0,86,0.00,,,0.00,,2013-09-24 06:52:00,
2013-09-24 03:12:00,48.0,44.0,30.09,East,93,1.0,3.0,87,0.00,,,0.00,,2013-09-24 07:12:00,
2013-09-24 03:22:00,48.0,44.0,30.09,East,99,2.0,5.0,87,0.00,,,0.00,,2013-09-24 07:22:00,
2013-09-24 03:52:00,48.0,45.0,30.09,East,92,1.0,3.0,88,0.00,,,0.00,,2013-09-24 07:52:00,
2013-09-24 04:11:00,47.0,44.0,30.09,East,97,2.0,3.0,89,0.00,,,0.00,,2013-09-24 08:11:00,
2013-09-24 04:23:00,47.0,44.0,30.09,East,101,1.0,4.0,89,0.00,,,0.00,,2013-09-24 08:23:00,
2013-09-24 04:42:00,47.0,44.0,30.09,ESE,103,1.0,3.0,89,0.00,,,0.00,,2013-09-24 08:42:00,
2013-09-24 04:52:00,47.0,44.0,30.09,East,100,1.0,4.0,90,0.00,,,0.00,,2013-09-24 08:52:00,
2013-09-24 05:12:00,46.0,44.0,30.10,East,90,1.0,3.0,91,0.00,,,0.00,,2013-09-24 09:12:00,
2013-09-24 05:21:00,46.0,44.0,30.10,ESE,113,1.0,2.0,91,0.00,,,0.00,,2013-09-24 09:21:00,
2013-09-24 05:43:00,46.0,44.0,30.10,ESE,114,0.0,2.0,91,0.00,,,0.00,,2013-09-24 09:43:00,
2013-09-24 05:54:00,46.0,44.0,30.10,ESE,115,0.0,1.0,92,0.00,,,0.00,,2013-09-24 09:54:00,
2013-09-24 06:23:00,46.0,44.0,30.10,ESE,107,0.0,2.0,92,0.00,,,0.00,,2013-09-24 10:23:00,
2013-09-24 06:42:00,46.0,44.0,30.10,ESE,108,1.0,3.0,92,0.00,,,0.00,,2013-09-24 10:42:00,
2013-09-24 06:53:00,46.0,44.0,30.10,SE,130,1.0,3.0,92,0.00,,,0.00,,2013-09-24 10:53:00,
2013-09-24 07:22:00,46.0,44.0,30.11,SE,130,0.0,0.0,92,0.00,,,0.00,,2013-09-24 11:22:00,
2013-09-24 07:52:00,45.0,43.0,30.11,SE,130,0.0,1.0,93,0.00,,,0.00,,2013-09-24 11:52:00,
2013-09-24 08:12:00,45.0,43.0,30.11,SE,130,0.0,1.0,93,0.00,,,0.00,,2013-09-24 12:12:00,
2013-09-24 08:22:00,45.0,43.0,30.11,SE,130,0.0,1.0,94,0.00,,,0.00,,2013-09-24 12:22:00,
2013-09-24 08:42:00,46.0,44.0,30.11,SE,130,0.0,2.0,93,0.00,,,0.00,,2013-09-24 12:42:00,
2013-09-24 08:52:00,47.0,45.0,30.11,ESE,116,0.0,3.0,92,0.00,,,0.00,,2013-09-24 12:52:00,
2013-09-24 09:11:00,49.0,46.0,30.11,ESE,103,2.0,5.0,90,0.00,,,0.00,,2013-09-24 13:11:00,
2013-09-24 09:22:00,50.0,47.0,30.11,SE,124,3.0,7.0,89,0.00,,,0.00,,2013-09-24 13:22:00,
2013-09-24 09:42:00,51.0,47.0,30.11,SE,132,4.0,7.0,86,0.00,,,0.00,,2013-09-24 13:42:00,
2013-09-24 09:52:00,52.0,47.0,30.11,SE,140,4.0,8.0,84,0.00,,,0.00,,2013-09-24 13:52:00,
2013-09-24 10:12:00,54.0,49.0,30.10,SE,129,5.0,10.0,82,0.00,,,0.00,,2013-09-24 14:12:00,
2013-09-24 10:21:00,55.0,49.0,30.10,ESE,103,5.0,10.0,79,0.00,,,0.00,,2013-09-24 14:21:00,
2013-09-24 10:52:00,57.0,49.0,30.09,SE,146,5.0,9.0,74,0.00,,,0.00,,2013-09-24 14:52:00,
2013-09-24 11:22:00,59.0,49.0,30.09,ESE,115,4.0,12.0,70,0.00,,,0.00,,2013-09-24 15:22:00,
2013-09-24 11:43:00,59.0,48.0,30.09,SE,128,6.0,12.0,67,0.00,,,0.00,,2013-09-24 15:43:00,
2013-09-24 11:54:00,59.0,48.0,30.09,SE,136,6.0,10.0,67,0.00,,,0.00,,2013-09-24 15:54:00,
2013-09-24 12:13:00,60.0,48.0,30.08,East,83,7.0,10.0,65,0.00,,,0.00,,2013-09-24 16:13:00,
2013-09-24 12:23:00,60.0,48.0,30.07,SSE,160,4.0,11.0,65,0.00,,,0.00,,2013-09-24 16:23:00,
2013-09-24 12:43:00,60.0,48.0,30.06,SE,140,5.0,13.0,65,0.00,,,0.00,,2013-09-24 16:43:00,
2013-09-24 12:53:00,61.0,48.0,30.06,East,93,5.0,13.0,63,0.00,,,0.00,,2013-09-24 16:53:00,
2013-09-24 13:13:00,61.0,48.0,30.05,ESE,117,6.0,14.0,63,0.00,,,0.00,,2013-09-24 17:13:00,
2013-09-24 13:23:00,62.0,48.0,30.04,ENE,61,7.0,10.0,60,0.00,,,0.00,,2013-09-24 17:23:00,
2013-09-24 13:54:00,62.0,47.0,30.03,ESE,119,9.0,14.0,59,0.00,,,0.00,,2013-09-24 17:54:00,
2013-09-24 14:22:00,63.0,48.0,30.03,ESE,104,7.0,15.0,58,0.00,,,0.00,,2013-09-24 18:22:00,
2013-09-24 14:52:00,64.0,48.0,30.01,ESE,122,7.0,13.0,57,0.00,,,0.00,,2013-09-24 18:52:00,
2013-09-24 15:11:00,64.0,48.0,30.01,ESE,111,7.0,11.0,57,0.00,,,0.00,,2013-09-24 19:11:00,
2013-09-24 15:22:00,64.0,48.0,30.00,ENE,59,7.0,12.0,56,0.00,,,0.00,,2013-09-24 19:22:00,
2013-09-24 15:52:00,65.0,48.0,29.99,East,92,5.0,13.0,55,0.00,,,0.00,,2013-09-24 19:52:00,
2013-09-24 16:12:00,66.0,48.0,29.99,SE,125,6.0,12.0,52,0.00,,,0.00,,2013-09-24 20:12:00,
2013-09-24 16:22:00,66.0,47.0,29.99,SE,126,7.0,10.0,51,0.00,,,0.00,,2013-09-24 20:22:00,
2013-09-24 16:42:00,66.0,48.0,29.98,East,88,5.0,13.0,52,0.00,,,0.00,,2013-09-24 20:42:00,
2013-09-24 16:52:00,67.0,49.0,29.98,ENE,73,7.0,11.0,52,0.00,,,0.00,,2013-09-24 20:52:00,
2013-09-24 17:22:00,67.0,48.0,29.97,ESE,107,6.0,13.0,50,0.00,,,0.00,,2013-09-24 21:22:00,
2013-09-24 17:43:00,67.0,48.0,29.97,SE,124,6.0,11.0,50,0.00,,,0.00,,2013-09-24 21:43:00,
2013-09-24 17:54:00,67.0,47.0,29.97,ENE,74,7.0,11.0,49,0.00,,,0.00,,2013-09-24 21:54:00,
2013-09-24 18:23:00,67.0,48.0,29.96,East,101,5.0,10.0,50,0.00,,,0.00,,2013-09-24 22:23:00,
2013-09-24 18:54:00,67.0,49.0,29.97,East,97,4.0,9.0,52,0.00,,,0.00,,2013-09-24 22:54:00,
2013-09-24 19:22:00,66.0,48.0,29.97,SE,126,1.0,4.0,53,0.00,,,0.00,,2013-09-24 23:22:00,
2013-09-24 19:53:00,64.0,50.0,29.97,SE,128,0.0,0.0,60,0.00,,,0.00,,2013-09-24 23:53:00,
2013-09-24 20:12:00,62.0,51.0,29.96,SE,128,0.0,0.0,66,0.00,,,0.00,,2013-09-25 00:12:00,
2013-09-24 20:22:00,60.0,49.0,29.96,ESE,114,0.0,2.0,68,0.00,,,0.00,,2013-09-25 00:22:00,
2013-09-24 20:42:00,59.0,49.0,29.96,ESE,114,0.0,0.0,70,0.00,,,0.00,,2013-09-25 00:42:00,
2013-09-24 20:52:00,57.0,50.0,29.97,ESE,114,0.0,1.0,76,0.00,,,0.00,,2013-09-25 00:52:00,
2013-09-24 21:12:00,56.0,50.0,29.97,ESE,114,0.0,0.0,80,0.00,,,0.00,,2013-09-25 01:12:00,
2013-09-24 21:21:00,55.0,50.0,29.97,ESE,114,0.0,0.0,82,0.00,,,0.00,,2013-09-25 01:21:00,
2013-09-24 21:42:00,54.0,49.0,29.97,ESE,114,0.0,0.0,83,0.00,,,0.00,,2013-09-25 01:42:00,
2013-09-24 21:52:00,53.0,49.0,29.97,ESE,114,0.0,0.0,87,0.00,,,0.00,,2013-09-25 01:52:00,
2013-09-24 22:12:00,53.0,49.0,29.97,ESE,114,0.0,0.0,87,0.00,,,0.00,,2013-09-25 02:12:00,
2013-09-24 22:22:00,52.0,49.0,29.96,ENE,76,2.0,3.0,89,0.00,,,0.00,,2013-09-25 02:22:00,
2013-09-24 22:42:00,55.0,49.0,29.96,East,94,5.0,9.0,81,0.00,,,0.00,,2013-09-25 02:42:00,
2013-09-24 22:52:00,56.0,49.0,29.96,East,83,5.0,11.0,77,0.00,,,0.00,,2013-09-25 02:52:00,
2013-09-24 23:23:00,55.0,48.0,29.98,ESE,111,4.0,5.0,78,0.00,,,0.00,,2013-09-25 03:23:00,
2013-09-24 23:45:00,54.0,48.0,29.97,East,96,3.0,5.0,80,0.00,,,0.00,,2013-09-25 03:45:00,
2013-09-24 23:55:00,54.0,48.0,29.97,East,90,2.0,5.0,80,0.00,,,0.00,,2013-09-25 03:55:00,